Regional Weather Roundup
Issued by NWS Midland/Odessa, TX

Skip options and go directly to product.
Home | Oldest Version | Previous Version | Current Version | All | Graphics & Text | Save Text | Print | Product List | Glossary On

Skip product version selection by date and time.   
589
ASUS44 KMAF 301810
RWRMAF
MIDLAND AREA WEATHER ROUNDUP
NATIONAL WEATHER SERVICE MIDLAND TX
100 PM CDT SAT JUL 30 2016

...IN SOUTHWEST TEXAS AND SOUTHEAST NEW MEXICO...

CITY           SKY/WX    TMP DP  RH WIND       PRES   REMARKS
ALPINE         PTSUNNY   83  56  39 SW9       30.20F
ANDREWS        FAIR      89  57  34 SE12      30.09S
ARTESIA        SUNNY     88  59  37 SE13G18   30.08F
BIG SPRING     SUNNY     90  62  38 S9        30.08F
CARLSBAD       SUNNY     88  57  34 SE10G21   30.05F
DRYDEN           N/A     89  65  44 SE8       30.01F
FORT STOCKTON  MOSUNNY   93  60  33 NE12      30.04F
GUAD PASS      SUNNY     82  53  36 MISG      30.21F
HOBBS          MOSUNNY   88  57  35 SE14      30.10F
MARFA          MOSUNNY   80  60  50 S8        30.19F
MIDLAND AIRPK  SUNNY     90  59  34 SE14      30.07F
MIDLAND INTL   SUNNY     89  60  37 S12G21    30.06F
ODESSA         SUNNY     87  61  41 S9G20     30.07F
PECOS          MOSUNNY   92  59  32 E13       30.02F
PRESIDIO       MOCLDY    87  62  42 S5        30.05F
SEMINOLE       SUNNY     90  55  30 S15       30.09F
SNYDER           N/A     89  63  41 S8G17     30.05F
WINK           SUNNY     89  61  38 SE13G23   30.03F
$$
...OTHER STATIONS IN TEXAS...

CITY           SKY/WX    TMP DP  RH WIND       PRES   REMARKS
ABILENE        MOSUNNY   90  65  43 VRB3      30.04F
AMARILLO       CLOUDY    86  62  44 SW15G23   30.09F
AUSTIN         MOSUNNY   90  72  55 S10       30.02F
BROWNSVILLE    MOSUNNY   95  75  52 SE18G25   30.00F HX 107
CORPUS CHRISTI PTSUNNY   93  75  55 SE9G20    29.99F HX 104
DALLAS FTW     MOSUNNY   96  69  41 SW9       29.98F HX 102
DEL RIO        SUNNY     90  70  51 SE12G20   29.99F
EL PASO        MOSUNNY   87  58  37 VRB5      30.07F
HOUSTON INT    MOSUNNY   94  73  50 W7        30.02F HX 103
LUBBOCK        CLOUDY    86  62  44 SW7       30.09F
SAN ANGELO     SUNNY     93  63  36 VRB6      30.03F
SAN ANTONIO    MOSUNNY   90  68  48 SW12      30.04F
WACO           SUNNY     95  66  38 SW5       30.00F
WICHITA FALLS  NOT AVBL
$$
...OTHER LOCATIONS IN NEW MEXICO...

CITY           SKY/WX    TMP DP  RH WIND       PRES   REMARKS
ALAMAGORDO     SUNNY     86  55  35 E6        30.10F
ALBUQUERQUE    MOSUNNY   82  54  37 SW10      30.17F
CANNON AFB     SUNNY     87  58  38 SW10G24   30.13F
CLOVIS         SUNNY     84  61  45 SW14      30.13F
HOLLOMAN AFB   SUNNY     88  56  33 VRB2      30.07F
ROSWELL        SUNNY     91  54  28 SE8G24    30.07F
RUIDOSO          N/A     77  48  36 SE12      30.31S
SANTA FE       SUNNY     84  48  28 W15       30.23F
TRUTH OR CONSE MOSUNNY   85  54  34 SW9G16    30.13F
TUCUMCARI      SUNNY     91  59  33 S18G26    30.07F
$$

USA.gov is the U.S. government's official web portal to all federal, state and local government web resources and services.